{"data":{"norad_id":68343,"epoch":"2026-09-19T23:17:30.496704Z","epoch_age_seconds":93490,"freshness":"FRESH","line1":"1 68343U 26059Y   26262.97049186  .00013268  00000+0  40324-3 0  9993","line2":"2 68343  53.1595 158.5430 0000428  80.1132 279.9919 15.34390283 28025","mean_motion":15.34390283,"eccentricity":4.28e-5,"inclination_deg":53.1595,"raan_deg":158.543,"arg_perigee_deg":80.1132,"mean_anomaly_deg":279.9919,"bstar":0.00040324,"rev_number":2802,"period_min":93.848352401225,"perigee_km":462.43933213289,"apogee_km":463.02491052968,"semimajor_km":6840.8691213313,"source":"CELESTRAK","updated_at":"2026-09-20T09:00:43.889334Z"}}